Location: Hokitika
(42.7170°S, 170.9670°E)
Time: 17:52:28
(UTC+13:00)

ARGOS - Pass Details

Date: 24 January 2019
Orbit: 821 x 834 km, 98.5° (Epoch: 22 February)

Event Time Altitude Azimuth Distance (km) Brightness Sun altitude
Rises 23:11:04 0° 169° (SSE) 3,394 6.9 -18.3°
Reaches altitude 10° 23:13:26 10° 170° (S) 2,454 6.2 -18.6°
Maximum altitude 23:18:52 75° 254° (WSW) 862 3.3 -19.2°
Enters shadow 23:23:31 14° 337° (NNW) 2,149 5.0 -19.7°
